Weather in Aim

Russia / Khabarovsk Krai     58°46′26″N   134°15′09″E
temp.,
°C
wind,
m/s
gust,
m/s
humid.,
%
clouds,
%
prec.,
mm/h
press.,
hPa
HPBL,
m
26 february, fri
fri2601:00−32nw119791 0.0 103519
04:00−34wnw119889 0.0 103619
07:00−35w01990 0.0 103719
10:00−30wsw01960 0.0 103775
13:00−23w018877 0.0 1036418
16:00−22nw018789 0.0 1034513
19:00−28se119474 0.0 103619
22:00−31se119637 0.0 103519
27 february, sat
sat2701:00−32se11970 0.0 103519
04:00−33se11994 0.0 103419
07:00−34se111000 0.0 103319
10:00−29sse11964 0.0 1031109
13:00−22sse129081 0.0 1027295
16:00−20se138890 0.0 1021344
19:00−22se1194100 0.0 101920
22:00−22se1193100 0.0 101720
28 february, sun
sun2801:00−21sse1199100 0.3 101454
04:00−21wsw1199100 1.3 101448
07:00−22w2698100 0.4 1016427
10:00−22wnw4893100 0.6 1018751
13:00−21wnw4787100 0.1 10211035
16:00−22wnw5885100 0.2 10221010
19:00−24wnw3891100 0.1 1026873
22:00−26wnw2994100 0.1 1028598
1 march, mon
mon101:00−30wnw2295100 0.0 102823
04:00−31w119899 0.0 102919
07:00−30w2397100 0.1 103080
10:00−28wnw389199 0.1 1030844
13:00−25nw4883100 0.1 10281194
16:00−25wnw5883100 0.1 10271294
19:00−27wnw3993100 0.1 1028575
22:00−27wnw2995100 0.1 1028649
2 march, tue
tue201:00−27wnw3994100 0.1 1027783
04:00−28wnw3894100 0.1 1027682
07:00−29wnw3895100 0.1 1027650
10:00−28wnw4891100 0.1 1027796
13:00−27wnw4788100 0.1 1026958
16:00−26wnw4787100 0.1 1025978
19:00−29wnw2596100 0.1 1026132
22:00−29w1198100 0.1 102719